Skip Page Navigation
NASA JPL Caltech
NASA Logo - Jet Propulsion Laboratory + View the NASA Portal
+ Center for Near-Earth Object Studies
JPL Home Earth Solar System Stars & Galaxies Technology
JPL Solar System Dynamics
BODIES ORBITS EPHEMERIDES TOOLS PHYSICAL DATA DISCOVERY FAQ SITE MAP
IMPORTANT: The SSD Announcement email list is now available. Major changes are coming in the near future, including possible hostname and/or URL changes. To be notified of such changes, subscribe to this email list.

Please visit this page for more details.


JPL Small-Body Database Browser
Search: [ help ]  
160533 (1996 TT56)
Classification: Jupiter Trojan          SPK-ID: 2160533
Ephemeris | Orbit Diagram | Orbital Elements | Mission Design | Physical Parameters | Discovery Circumstances ]

[ show orbit diagram ]
Orbital Elements at Epoch 2458600.5 (2019-Apr-27.0) TDB
Reference: JPL 16 (heliocentric ecliptic J2000)
 Element Value Uncertainty (1-sigma)   Units 
e .0391238468712535 8.564e-08  
a 5.250066359693834 1.8262e-07 au
q 5.044663567373253 5.7129e-07 au
i 7.768665071152217 6.5005e-06 deg
node 292.130457470079 5.275e-05 deg
peri 68.11008843089266 9.6801e-05 deg
M 308.8806571226382 8.3665e-05 deg
tp 2459224.419239280503
(2021-Jan-09.91923928)
0.0010226 TDB
period 4393.853940568748
12.03
0.00022925
6.277e-07
d
yr
n .08193262790920196 4.2749e-09 deg/d
Q 5.455469152014415 1.8976e-07 au
  Orbit Determination Parameters
   # obs. used (total)      351  
   data-arc span      8375 days (22.93 yr)  
   first obs. used      1996-09-16  
   last obs. used      2019-08-22  
   planetary ephem.      DE431  
   SB-pert. ephem.      SB431-N16  
   condition code      0  
   norm. resid. RMS      .55303  
   source      ORB  
   producer      Otto Matic  
   solution date      2019-Sep-24 03:40:51  

Additional Information
 Earth MOID = 4.04906 au 
 Jupiter MOID = .00852966 au 
 T_jup = 2.980 
[ show covariance matrix ]

Ephemeris | Orbit Diagram | Orbital Elements | Mission Design | Physical Parameters | Discovery Circumstances ]

Physical Parameter Table
Parameter Symbol Value Units Sigma Reference Notes
absolute magnitude H 12.4   n/a MPO382101  

160533 (1996 TT56)          Discovered 1996-Oct-02 by Elst, E. W. at La Silla
Reference: 20070828/Numbers.arcLast Updated: 2007-08-30
Ephemeris | Orbit Diagram | Orbital Elements | Mission Design | Physical Parameters | Discovery Circumstances ]
ABOUT SSD CREDITS/AWARDS PRIVACY/COPYRIGHT GLOSSARY LINKS
FirstGov
(server date/time)  
NASA Home Page
Site Manager:   Ryan S. Park
Webmaster  Alan B. Chamberlin